This is the latest recevied weather packets stored in our database for station/object IZ7XUV. If no packets are shown the sender has not sent any weather packets the latest 10 day(s).
| Time | Temp. | Humidity | Pressure | Rain* | Wind** | Luminosity | Snow |
|---|---|---|---|---|---|---|---|
| 1778105728 | 18.33° C | 71% | 1015 hPa | 0 mm | - | 0 W/m² | - |
| 1778104570 | 18.33° C | 76% | 1015.1 hPa | 0 mm | - | 0 W/m² | - |
| 1778100971 | 18.33° C | 77% | 1014.8 hPa | 0 mm | - | 0 W/m² | - |
| 1778096151 | 18.33° C | 76% | 1014 hPa | 0 mm | - | 0 W/m² | - |
| 1778094951 | 18.33° C | 76% | 1014 hPa | 0 mm | - | 0 W/m² | - |
| 1778089564 | 19.44° C | 73% | 1013.9 hPa | 0 mm | - | 3 W/m² | - |
| 1778087123 | 20° C | 71% | 1013.9 hPa | 0 mm | - | 31 W/m² | - |
| 1778082976 | 22.22° C | 64% | 1013.9 hPa | 0 mm | - | 144 W/m² | - |
| 1778081757 | 22.78° C | 64% | 1013.7 hPa | 0 mm | - | 149 W/m² | - |
| 1778081166 | 22.78° C | 63% | 1013.6 hPa | 0 mm | - | 181 W/m² | - |
| 1778080535 | 23.33° C | 62% | 1013.6 hPa | 0 mm | - | 259 W/m² | - |
| 1778079376 | 23.33° C | 61% | 1013.5 hPa | 0 mm | - | 212 W/m² | - |
| 1778075167 | 23.33° C | 60% | 1013.9 hPa | 0 mm | - | 580 W/m² | - |
| 1778073967 | 23.33° C | 61% | 1014 hPa | 0 mm | - | 297 W/m² | - |
| 1778066139 | 22.78° C | 63% | 1014.4 hPa | 0 mm | - | 209 W/m² | - |
| 1778060161 | 23.89° C | 58% | 1015 hPa | 0 mm | - | 416 W/m² | - |
| 1778059551 | 23.89° C | 56% | 1015 hPa | 0 mm | - | 433 W/m² | - |
| 1778058961 | 23.89° C | 55% | 1015 hPa | 0 mm | - | 687 W/m² | - |
| 1778057722 | 23.89° C | 58% | 1014.8 hPa | 0 mm | - | 674 W/m² | - |
| 1778052964 | 20.56° C | 71% | 1014.6 hPa | 0 mm | - | 243 W/m² | - |
| 1778049975 | 18.89° C | 75% | 1014.9 hPa | 0 mm | - | 167 W/m² | - |
| 1778046375 | 17.78° C | 76% | 1014.7 hPa | 0 mm | - | 103 W/m² | - |
| 1778045155 | 17.22° C | 81% | 1014.7 hPa | 0 mm | - | 50 W/m² | - |
| 1778028319 | 16.67° C | 83% | 1015 hPa | 0 mm | - | 0 W/m² | - |
| 1778027770 | 16.67° C | 83% | 1015 hPa | 0 mm | - | 0 W/m² | - |
* Rain latest hour (hover to see other rain measurements)
** Current wind speed in m/s (hover to see current wind gust speed)